Regional Weather Roundup
Issued by NWS

Home | Current Version | Previous Version | Text Only | Print | Product List | Glossary Off
Versions: 1 2 3 4 5 6 7 8 9 10 11 12 13 14 15 16 17 18 19 20 21 22 23 24 25 26 27 28 29 30 31 32 33 34 35 36 37 38 39 40 41 42 43 44 45 46 47 48 49 50

000
ASUS43 KDMX 221307
RWRIA

WEATHER ROUNDUP FOR IOWA
NATIONAL WEATHER SERVICE DES MOINES IA
800 AM CDT FRI MAY 22 2015

NOTE: "FAIR" INDICATES FEW OR NO CLOUDS BELOW 12,000 FEET WITH NO
SIGNIFICANT WEATHER AND/OR OBSTRUCTIONS TO VISIBILITY.

* - THESE STATIONS ARE NOT NWS STATIONS...THUS NOT UNDER NWS
QUALITY CONTROL.  THEY ALSO DO NOT REPORT WEATHER SUCH
AS PRECIPITATION OR FOG.

IAZ001>003-012>014-020>022-031>034-043>046-221400-
   NORTHWEST IOWA

CITY           SKY/WX    TMP DP  RH WIND       PRES   REMARKS
CARROLL *      SUNNY     57  43  58 W7        30.20S
CHEROKEE *     SUNNY     48  46  93 CALM      30.21R
DENISON *      SUNNY     54  46  76 CALM      30.19S
LE MARS *      SUNNY     50  45  81 S3        30.22R
ORANGE CITY *  SUNNY     54  45  71 CALM      30.20S
SHELDON *      SUNNY     52  43  71 CALM      30.20R
SIOUX CITY     SUNNY     54  42  64 CALM      30.21S
SPENCER        SUNNY     52  40  63 W3        30.20S
STORM LAKE *   SUNNY     55  43  62 W3        30.21S
$$

IAZ055>058-069>071-079>083-090>094-221400-
   SOUTHWEST IOWA

CITY           SKY/WX    TMP DP  RH WIND       PRES   REMARKS
ATLANTIC *     SUNNY     52  46  82 SW5       30.22R
AUDUBON *      SUNNY     61  43  51 NW3       30.21S
CLARINDA *     SUNNY     52  46  82 CALM      30.24S
COUNCIL BLFS * SUNNY     55  46  71 CALM      30.22R
CRESTON *        N/A     55  46  71 W8        30.22S
HARLAN  *      SUNNY     54  50  87 CALM      30.25R
LAMONI         MOSUNNY   58  46  64 W8        30.21S
RED OAK *      SUNNY     52  48  87 CALM      30.23R
SHENANDOAH *   SUNNY     52  48  87 CALM      30.23S
$$

IAZ047>049-059>061-072>074-084-221400-
   CENTRAL IOWA

CITY           SKY/WX    TMP DP  RH WIND       PRES   REMARKS
AMES           SUNNY     54  45  71 CALM      30.20R
ANKENY *       SUNNY     57  45  62 NW5       30.20R
CHARITON *     SUNNY     57  45  62 NW7       30.20S
DES MOINES     PTSUNNY   57  44  62 NW3       30.20R
GRINNELL*      SUNNY     55  41  58 N6        30.19S
KNOXVILLE *    SUNNY     55  45  67 W8        30.19R
MARSHALLTOWN   SUNNY     54  42  64 N3        30.19R
PELLA *        SUNNY     57  48  72 W5        30.21S
PERRY *          N/A     55  43  62 W7        30.20S
$$

IAZ004>006-015-016-023>025-035-036-221400-
   NORTH CENTRAL IOWA

CITY           SKY/WX    TMP DP  RH WIND       PRES   REMARKS
ALGONA *       SUNNY     55  41  58 N6        30.20S
CLARION *      SUNNY     54  41  62 N7        30.20R
ESTHERVILLE    SUNNY     57  39  51 N6        30.19S
FORT DODGE *   SUNNY     54  43  66 CALM      30.20S
MASON CITY     SUNNY     56  42  59 NW3       30.20S
FOREST CITY *  SUNNY     52  41  66 CALM      30.19S
IOWA FALLS *     N/A     55  39  54 N6        30.20S
$$

IAZ007>011-017>019-026>030-037>042-050>054-066-221400-
   NORTHEAST IOWA

CITY           SKY/WX    TMP DP  RH WIND       PRES   REMARKS
CEDAR RAPIDS   SUNNY     54  42  64 N7        30.18R
CHARLES CITY * SUNNY     55  39  54 VRB3      30.19F
CLINTON *      SUNNY     54  45  71 NE6       30.20R
DECORAH *      SUNNY     52  37  58 NW3       30.18R
DUBUQUE        SUNNY     55  45  68 NE5       30.18R
MONTICELLO *   SUNNY     52  46  82 CALM      30.18R
OELWEIN *      SUNNY     57  41  54 N6        30.19S
WATERLOO       SUNNY     53  44  71 NW5       30.19R
$$

IAZ064-065-067-068-078-221400-
   EAST CENTRAL IOWA

CITY           SKY/WX    TMP DP  RH WIND       PRES   REMARKS
DAVENPORT        N/A     56  42  59 N3        30.18R
IOWA CITY      SUNNY     57  41  55 N5        30.19R
MT. PLEASANT * SUNNY     57  45  62 W3        30.19R
MUSCATINE *    SUNNY     57  41  54 N6        30.18S
QUAD CITIES    SUNNY     57  44  62 CALM      30.17R
$$

IAZ062-063-075>077-085>089-095>099-221400-
   SOUTHEAST IOWA

CITY           SKY/WX    TMP DP  RH WIND       PRES   REMARKS
BURLINGTON     SUNNY     57  48  72 CALM      30.18R
FAIRFIELD *    SUNNY     55  45  67 W8        30.19S
FORT MADISON * SUNNY     57  46  67 NW8       30.19S
KEOKUK *       SUNNY     57  46  67 NW7       30.19R
OSKALOOSA *      N/A     55  45  67 NW8       30.19S
CENTERVILLE *  SUNNY     57  57 100 NW9       30.22S
OTTUMWA        SUNNY     55  45  68 W7        30.19R
WASHINGTON *   SUNNY     55  45  67 NW3       30.19S
$$

ABBREVIATIONS USED IN REMARKS
   TC - TEMPERATURES IN CELSIUS
  WCI - WIND CHILL INDEX
   HX - HEAT INDEX
  VSB - VISIBILITY
$$




USA.gov is the U.S. government's official web portal to all federal, state and local government web resources and services.